Regional Weather Roundup
Issued by NWS Tiyan, Guam

Home | Current Version | Previous Version | Text Only | Print | Product List | Glossary On
Versions: 1 2 3 4 5 6 7 8 9 10 11 12 13 14 15 16 17 18 19 20 21 22 23 24 25 26 27 28 29 30 31 32 33 34 35 36 37 38 39 40 41 42 43 44 45 46 47 48 49 50
000
ASGM40 PGUM 182212
RWRGUM
WEATHER ROUNDUP FOR THE MARIANAS
NATIONAL WEATHER SERVICE TIYAN GU
800 AM CHST FRI SEP 19 2014

GUZ001>004-182300-
MARIANA ISLANDS-

CITY           SKY/WX    TMP DP  RH WIND       PRES   REMARKS
GUAM AIRPORT   RAIN      77  75  94 NE7       29.92R
ANDERSEN AFB   LGT RAIN  77  75  94 N8        29.91S
ROTA AIRPORT   PTSUNNY   79  77  94 N6        29.91S
TINIAN AP      PTSUNNY   81  77  89 NE5       29.89
SAIPAN AP      SUNNY     82  77  83 NE6       29.90R HX  91

$$




USA.gov is the U.S. government's official web portal to all federal, state and local government web resources and services.